RH
68 63 65 69 69 70 76 79 83 81 84 85 87 90 91 87 87 90 93 95 90 90 93 92 91 90 94 94 95 95 95 92 90 85 87 83 77 78 72 81 82 87 88
84 76 70 74 75 79 82 81 84 84 81 77 81 88 88 91 92 94 95 95 96 95 95 92 94 88 92 92 91 96 95 94 98 98 88 88 95 98 98 97 90 80 83
99 98 83 87 83 91 91 84 84 84 82 80 80 87 93 92 91 96 95 95 96 95 96 97 95 95 93 96 92 92 92 88 94 98 98 98 99 98 98 97 96 96 89
94 98 99 98 99 98 96 92 87 84 83 82 82 86 89 84 83 91 94 94 94 94 95 95 95 92 93 91 91 92 88 92 91 92 95 96 96 96 96 97 98 96 96
45 54 83 99 99 99 99 98 90 84 82 82 80 80 84 87 85 81 88 92 92 92 91 92 94 91 89 90 89 93 90 90 90 91 92 92 95 96 97 97 98 97 98
43 46 46 47 48 70 75 78 72 83 81 80 81 78 81 84 64 66 79 87 87 89 90 87 88 90 92 88 88 86 89 94 93 90 92 95 96 98 96 97 98 98 98
45 43 45 48 50 53 52 56 65 67 74 78 78 76 74 74 68 61 68 84 86 88 87 88 88 87 84 89 91 90 88 85 91 94 94 97 95 98 98 98 97 94 99
58 51 50 51 53 54 56 56 64 64 68 71 77 72 71 57 66 66 62 72 79 82 84 81 84 82 79 84 83 87 89 94 96 96 96 97 97 97 98 99 100 99 98
79 80 59 59 60 62 65 65 62 67 74 81 78 79 77 72 64 66 65 65 74 83 80 75 74 76 72 77 81 84 88 91 82 82 81 88 91 93 90 92 96 97 98
70 80 86 72 79 78 74 77 71 65 77 83 84 85 71 76 64 64 63 71 82 81 81 81 67 70 70 72 82 87 92 95 90 90 90 88 87 88 86 91 94 94 96
44 48 66 73 88 88 85 74 82 81 79 85 86 87 84 75 76 63 63 78 85 84 84 85 79 65 66 70 74 83 86 87 88 86 87 88 89 86 88 87 89 96 92
34 41 42 48 43 45 70 73 74 80 87 87 83 84 83 82 64 64 62 65 72 86 87 86 80 63 65 65 70 68 71 81 84 86 86 88 89 87 85 85 83 87 98
29 32 36 36 36 39 50 59 68 70 75 76 79 84 84 79 79 66 64 64 69 85 93 69 62 62 64 74 65 67 76 82 84 86 89 89 89 85 82 79 76 78 84
30 33 36 36 38 37 36 47 58 66 69 71 81 88 86 82 81 77 77 80 72 78 84 88 84 77 80 80 81 78 81 82 84 85 87 86 84 80 80 79 79 79 81
30 34 41 44 41 42 48 55 57 76 65 76 85 87 91 89 83 68 69 81 83 78 82 92 93 93 90 87 83 83 81 80 82 83 83 82 81 78 78 73 73 74 78
38 42 54 52 53 49 50 64 63 71 63 63 63 79 86 65 58 58 60 64 58 60 79 85 88 88 86 87 86 85 86 81 78 77 78 76 76 74 71 65 65 72 74
46 45 56 60 58 62 68 70 82 78 66 63 65 63 61 63 62 57 58 59 57 61 80 84 86 85 82 81 79 82 84 83 75 75 76 78 74 70 71 67 68 68 68
83 75 79 83 86 86 87 90 91 92 93 96 84 72 61 64 68 58 61 64 78 71 72 76 81 80 77 74 77 88 91 88 84 77 83 84 84 78 77 71 69 76 70
70 83 90 90 91 88 91 90 90 88 89 90 88 83 73 64 63 59 69 85 85 81 76 74 78 78 81 81 87 88 87 94 95 94 94 88 91 82 81 77 77 76 73
86 78 76 88 89 87 88 86 84 85 84 86 89 89 79 78 88 87 88 89 88 85 85 81 79 81 85 81 85 88 86 86 86 96 95 94 94 86 84 82 80 80 70
82 78 73 77 80 81 83 82 82 86 88 86 89 90 79 85 86 85 87 89 89 88 88 86 86 87 83 84 84 87 86 88 90 94 88 92 94 89 83 80 80 73 70
70 65 64 71 66 79 74 71 81 80 76 79 84 80 80 88 84 85 86 92 94 86 85 86 88 83 82 88 87 90 91 89 88 91 94 93 90 87 87 85 84 84 79
65 68 60 59 67 73 86 77 84 85 84 87 84 86 86 91 91 87 89 93 88 91 90 88 88 87 88 88 89 88 89 89 89 94 92 94 92 90 90 88 85 84 88
66 74 56 76 84 81 89 91 89 78 84 87 91 90 90 91 91 90 94 92 92 91 89 88 86 92 85 89 86 84 85 94 94 95 94 93 89 84 88 89 83 85 84
82 86 86 84 86 90 90 87 89 90 90 91 91 92 87 89 86 90 90 88 91 87 85 86 91 85 84 86 86 93 96 93 97 95 95 93 91 91 92 88 88 87 86
74 75 81 85 88 89 89 90 91 91 92 90 90 92 91 88 87 89 86 92 84 85 85 86 84 84 86 86 87 90 93 95 96 95 97 92 93 92 92 93 86 86 83
Wind_Speed
8 8 10 9 10 9 9 10 12 13 14 16 17 16 16 18 19 17 17 17 17 15 14 13 13 11 7 8 7 7 4 6 10 7 3 7 10 14 15 14 15 12 14
3 6 7 7 7 7 9 11 12 13 14 15 17 16 17 17 19 20 18 17 17 17 15 15 15 11 12 11 6 8 7 5 3 6 5 4 4 3 3 3 14 10 12
3 1 3 4 4 5 6 9 11 12 14 13 16 17 16 18 18 18 18 18 17 17 17 16 17 17 17 12 12 10 9 7 5 4 4 5 2 3 2 3 12 13 17
7 3 2 0 3 3 2 3 8 10 12 13 14 16 16 16 17 17 18 19 18 17 19 18 18 20 23 16 16 15 12 11 11 10 7 6 4 6 6 3 7 7 11
6 5 3 4 2 2 3 2 4 8 11 10 12 14 16 14 13 16 16 17 18 19 19 19 20 26 34 29 16 18 16 13 12 10 12 9 8 8 9 7 1 6 6
6 6 7 8 8 5 5 6 8 7 9 12 11 15 17 13 26 25 19 14 16 18 17 18 20 26 22 31 31 33 27 16 17 13 11 11 12 10 9 8 4 2 3
6 7 8 8 8 8 9 9 9 9 9 12 14 13 16 18 30 25 25 13 15 17 19 18 17 17 23 17 23 25 27 30 21 14 14 15 14 14 12 10 11 10 6
7 7 8 7 8 8 9 9 8 9 10 11 12 14 13 16 30 28 24 14 14 17 18 20 20 21 24 20 17 17 18 18 19 13 15 14 15 15 14 9 5 4 5
6 5 7 8 7 8 8 9 8 7 7 8 9 12 14 14 30 30 20 13 14 15 15 17 18 19 31 30 17 17 16 17 18 25 25 25 26 29 22 9 12 6 6
6 5 2 4 5 5 6 6 7 7 7 5 8 8 18 14 26 29 22 11 13 11 13 14 28 25 31 32 18 16 16 16 14 14 14 16 19 19 23 15 11 9 7
5 6 4 2 4 3 2 4 4 4 5 6 7 7 10 14 15 25 26 11 9 9 10 10 11 27 29 30 26 17 17 13 13 12 12 12 13 13 12 11 12 8 10
6 6 5 4 4 5 6 6 5 5 4 5 8 7 7 10 20 21 23 21 18 8 9 7 10 24 25 27 20 27 24 13 10 11 11 12 13 12 12 12 12 9 3
6 6 5 5 5 5 7 7 6 8 6 7 7 7 7 8 9 20 21 21 19 9 8 14 18 19 20 14 26 24 17 11 11 11 11 11 10 10 10 11 12 13 8
5 4 5 4 4 6 6 6 5 5 6 6 7 7 7 8 8 8 8 7 13 10 10 3 5 7 9 8 8 11 9 10 10 9 9 8 8 10 10 9 9 9 6
5 4 4 4 4 5 5 4 5 4 5 4 4 5 5 6 7 13 12 8 7 9 7 2 3 3 4 5 6 7 8 9 8 8 9 10 10 10 10 10 9 9 9
4 5 3 3 3 3 2 5 7 7 7 8 9 6 4 12 14 16 16 17 12 16 6 6 7 7 6 5 5 5 4 5 7 8 8 9 10 10 10 10 10 10 10
6 4 3 4 3 3 3 3 2 3 4 4 6 11 14 12 15 14 17 17 17 12 6 6 7 8 8 8 6 5 5 5 6 6 7 8 9 10 11 10 10 9 9
5 4 3 3 3 3 3 2 2 2 1 4 5 10 16 16 16 13 16 13 8 10 8 8 7 8 8 9 9 9 4 4 5 6 6 7 8 9 8 9 9 11 11
3 4 2 2 3 1 2 2 2 2 2 2 2 8 11 18 14 14 15 6 7 8 8 8 8 8 8 8 7 8 9 7 3 2 3 5 5 7 8 8 9 11 11
3 4 1 1 1 2 2 2 2 3 3 3 5 5 5 6 5 5 5 6 6 6 7 8 8 8 7 8 8 8 8 9 9 4 3 3 2 5 6 7 8 9 10
3 5 1 1 3 3 3 2 2 2 2 3 4 2 3 4 5 6 6 6 6 6 7 7 7 7 7 7 7 8 8 8 9 7 5 3 3 5 6 6 7 9 9
2 2 2 2 2 3 3 2 2 3 4 4 3 3 6 4 5 5 6 5 4 6 6 6 6 7 6 7 7 7 8 8 8 9 3 3 4 6 6 6 6 6 8
3 2 2 3 2 2 2 2 3 3 3 3 4 4 4 4 4 5 5 5 5 4 5 5 6 6 5 5 5 6 6 7 8 7 5 3 4 5 4 5 6 7 6
3 2 2 3 3 3 4 2 2 2 2 3 3 4 4 4 4 5 4 4 3 4 5 5 6 7 7 5 5 6 7 7 7 5 5 5 6 7 7 6 6 7 7
3 3 2 2 2 2 1 2 2 2 3 3 3 3 4 4 5 5 5 4 5 6 6 7 5 7 7 9 9 8 5 9 4 5 4 5 5 8 5 4 6 8 8
3 3 3 2 2 1 1 2 3 3 3 4 3 3 4 5 5 6 5 5 6 6 7 6 7 8 9 8 5 8 7 8 4 5 3 5 6 3 4 5 8 7 10
Wind_Direction
21 25 32 17 15 8 5 13 8 9 8 5 353 1 4 10 5 7 10 7 6 4 10 358 11 344 357 6 356 344 347 280 255 265 275 210 231 231 233 227 225 200 197
36 29 39 25 24 14 18 17 11 13 10 13 4 359 9 15 15 10 11 6 11 8 13 11 15 8 14 17 356 18 4 328 352 294 264 262 198 33 65 51 20 268 197
155 82 45 27 18 4 24 25 22 18 15 17 14 5 9 14 20 15 10 12 13 13 8 19 22 18 24 17 25 27 1 347 356 296 333 360 12 81 165 82 30 25 10
155 154 113 339 311 341 359 30 31 25 21 18 25 12 6 20 22 18 16 16 13 14 16 16 17 28 34 20 28 26 16 20 16 19 20 29 348 357 353 6 81 51 35
49 50 126 198 292 350 8 93 58 34 24 26 25 23 14 13 31 29 22 19 19 17 15 18 17 26 37 35 37 32 30 34 35 32 39 28 8 7 341 356 310 146 86
54 44 41 35 30 25 43 43 56 47 42 23 28 28 23 16 23 37 38 29 26 27 22 21 21 19 20 33 37 45 45 40 43 41 39 29 19 358 333 333 319 47 106
55 47 37 39 35 27 27 41 33 48 37 40 26 32 27 25 20 30 37 33 29 25 28 23 26 22 19 21 30 34 39 42 43 40 41 31 21 1 344 350 28 46 41
34 39 37 41 37 34 28 26 41 28 44 35 35 26 31 27 27 24 30 30 37 32 24 31 27 24 26 21 21 29 35 33 34 35 33 30 28 15 8 337 344 89 71
84 30 37 33 38 33 33 20 26 36 37 46 41 35 30 27 30 28 22 31 28 34 30 25 35 31 32 30 26 28 29 31 25 31 36 32 30 29 20 5 25 10 74
115 113 2 71 56 28 21 37 22 25 23 51 53 53 41 26 26 28 28 20 28 24 27 26 31 34 35 35 31 25 27 17 15 17 23 20 26 21 18 23 16 23 44
87 116 128 131 163 123 8 36 52 29 18 24 57 56 42 36 20 28 26 20 27 26 23 20 24 33 34 38 36 33 30 12 17 22 21 21 23 20 10 7 16 15 45
114 103 74 75 47 66 54 30 24 23 30 31 34 36 41 36 25 19 23 24 21 22 23 21 21 30 34 37 38 33 29 24 23 25 24 20 15 14 1 360 6 13 46
106 90 63 87 52 41 72 51 31 17 28 22 29 26 22 27 17 17 12 15 12 14 355 27 25 36 37 33 38 32 23 24 26 28 22 17 10 2 349 6 6 3 17
109 85 98 75 83 67 46 71 52 31 22 34 17 22 18 15 3 6 360 355 352 352 347 10 19 30 36 35 36 37 30 21 27 24 21 14 4 8 8 4 6 6 16
105 87 81 60 34 97 85 38 91 61 48 53 29 31 14 6 359 4 359 347 342 335 326 11 3 8 37 38 28 34 27 20 19 23 23 18 11 11 6 5 8 8 10
106 86 23 53 47 37 47 139 74 114 89 86 71 58 21 2 4 4 1 348 358 6 12 17 17 14 20 38 33 28 40 29 16 24 22 23 11 10 6 7 8 11 4
82 70 99 49 32 30 25 21 83 153 130 99 80 51 33 10 356 5 1 10 15 24 15 15 15 11 6 11 14 22 22 26 24 30 29 29 12 4 2 6 4 5 360
109 70 53 58 45 15 10 12 29 15 36 154 111 59 27 9 341 9 20 19 9 18 14 13 13 11 5 2 3 1 0 21 21 20 23 25 13 1 1 5 3 357 348
115 69 349 71 95 275 318 13 30 15 13 37 9 54 26 348 350 19 36 34 14 12 9 7 10 8 1 357 356 357 354 358 2 24 25 30 7 354 354 359 358 353 344
112 113 104 19 64 23 15 12 27 21 1 26 60 45 13 344 349 10 36 36 23 7 7 2 6 3 357 358 357 357 354 354 349 360 40 33 13 348 353 355 348 346 346
125 131 124 270 67 50 357 20 17 23 12 24 74 125 41 330 4 5 25 33 21 8 5 2 358 354 356 358 1 357 347 340 342 345 37 11 13 350 355 349 344 342 335
107 100 91 58 60 55 11 17 25 19 15 15 10 37 26 24 14 1 20 27 17 12 2 4 354 352 348 1 358 340 341 338 338 332 4 20 5 342 347 342 338 328 333
107 100 107 98 33 162 225 23 44 43 22 355 12 11 12 21 4 5 10 20 15 5 2 5 354 330 336 357 337 346 333 323 319 332 0 358 346 338 330 333 329 333 332
112 108 100 103 83 342 70 345 30 73 39 11 13 10 10 11 358 3 19 20 6 2 13 353 314 315 347 349 338 315 314 338 343 12 354 356 341 327 326 343 333 330 319
106 104 84 79 81 51 61 22 24 39 30 12 11 6 5 6 359 6 14 358 19 16 337 305 334 337 334 321 301 304 0 339 21 12 356 318 308 315 344 325 318 314 314
118 99 81 55 82 77 39 18 24 31 33 24 353 9 15 4 356 17 340 27 7 331 326 332 311 309 302 300 320 333 325 318 5 355 321 303 316 329 324 334 330 322 313